Find Gao Fen 11-02

NORAD ID: 46396 Int'l Des: 2020-064 Owner: ZLZB Country: CN operational
LEOCIRCULARRETROGRADESSO

Live-Position

3D-Globus wird geladen...

Über Gao Fen 11-02

Beschreibung wird geladen...

Nächste Überflüge

Passes for default location (London). Set your location on the main map for personalized predictions.

Höhenverlauf

Loading altitude history...

Zweizeiliger Elementsatz

1 46396U 20064A 26106.98290810 .00004256 00000-0 17994-3 0 9992
2 46396 97.5049 232.9577 0020504 158.1754 202.0360 15.23584594312219
Epoch: 16. Apr. 2026 • Age: 4 hours

Aktueller Status

Höhe 500.8 km
Geschwindigkeit 7.62 km/s
Subsatellitenpunkt 78.24°N, 160.79°W
Startdatum 7. Sept. 2020
Alter 5.6 years
Typ other

Technische Details

Klassifizierung Payload
Masse 3000.00 kg
Trockenmasse 3000.00 kg
Gesamtmasse 3000.00 kg
Länge 2.00 m
Durchmesser 2.00 m
Spannweite 8.00 m
Form Box + 2 Pan
Hersteller CAST
Bus-Typ JB-16
Phasenstatus In Orbit
Besitzer/Staat ZLZB/CN

Most Searched